When you browse on this site, cookies collect data to enhance your experience and personalize the content and advertising you see.
Visit our Privacy Policy to learn more. By continuing to use the site, you agree to this use of cookies and data.
  • In Belgium
  • List of Countries
  • For 7 days
  • Water Temperature
  • Weather Map
  • Weather Widgets
  • user-avatar
    Login

    Hourly Weather Gaborone

    Today, 2 June, Tuesday

    Time Temperature Precipitation Wind Pressure Humidity
    00:00 +15°C° 0 mm 0 mps 682 mmHg 33%
    01:00 +15°C° 0 mm 1 mps 682 mmHg 34%
    02:00 +14°C° 0 mm 1 mps 682 mmHg 35%
    03:00 +14°C° 0 mm 1 mps 682 mmHg 36%
    04:00 +13°C° 0 mm 1 mps 682 mmHg 36%
    05:00 +13°C° 0 mm 1 mps 681 mmHg 37%
    06:00 +13°C° 0 mm 1 mps 682 mmHg 36%
    07:00 +14°C° 0 mm 1 mps 682 mmHg 35%
    08:00 +15°C° 0 mm 1 mps 683 mmHg 37%
    09:00 +19°C° 0 mm 1 mps 684 mmHg 35%
    10:00 +21°C° 0 mm 1 mps 684 mmHg 32%
    11:00 +23°C° 0 mm 1 mps 684 mmHg 30%
    12:00 +25°C° 0 mm 2 mps 683 mmHg 27%
    13:00 +26°C° 0 mm 2 mps 683 mmHg 25%
    14:00 +27°C° 0 mm 2 mps 683 mmHg 22%
    15:00 +26°C° 0 mm 2 mps 682 mmHg 23%
    16:00 +25°C° 0 mm 2 mps 682 mmHg 25%
    17:00 +25°C° 0 mm 1 mps 681 mmHg 26%
    18:00 +23°C° 0 mm 1 mps 681 mmHg 30%
    19:00 +21°C° 0 mm 1 mps 681 mmHg 35%
    20:00 +17°C° 0 mm 0 mps 681 mmHg 39%
    21:00 +16°C° 0 mm 0 mps 681 mmHg 40%
    22:00 +16°C° 0 mm 0 mps 681 mmHg 42%
    23:00 +15°C° 0 mm 0 mps 681 mmHg 44%

    Tomorrow, 3 June, Wednesday

    Time Temperature Precipitation Wind Pressure Humidity
    00:00 +15°C° 0 mm 0 mps 681 mmHg 45%
    01:00 +14°C° 0 mm 0 mps 681 mmHg 46%
    02:00 +15°C° 0 mm 1 mps 680 mmHg 48%
    03:00 +14°C° 0 mm 1 mps 680 mmHg 50%
    04:00 +13°C° 0 mm 1 mps 680 mmHg 53%
    05:00 +13°C° 0 mm 1 mps 680 mmHg 56%
    06:00 +13°C° 0 mm 1 mps 681 mmHg 54%
    07:00 +14°C° 0 mm 1 mps 681 mmHg 53%
    08:00 +14°C° 0 mm 1 mps 681 mmHg 52%
    09:00 +18°C° 0 mm 1 mps 682 mmHg 46%
    10:00 +20°C° 0 mm 1 mps 682 mmHg 41%
    11:00 +23°C° 0 mm 2 mps 683 mmHg 35%
    12:00 +24°C° 0 mm 2 mps 682 mmHg 31%
    13:00 +25°C° 0 mm 2 mps 681 mmHg 27%
    14:00 +26°C° 0 mm 2 mps 681 mmHg 23%
    15:00 +26°C° 0 mm 2 mps 680 mmHg 24%
    16:00 +25°C° 0 mm 1 mps 680 mmHg 25%
    17:00 +24°C° 0 mm 1 mps 680 mmHg 26%
    18:00 +22°C° 0 mm 1 mps 680 mmHg 29%
    19:00 +20°C° 0 mm 1 mps 680 mmHg 33%
    20:00 +19°C° 0 mm 1 mps 679 mmHg 37%
    21:00 +18°C° 0 mm 1 mps 679 mmHg 38%
    22:00 +15°C° 0 mm 0 mps 680 mmHg 40%
    23:00 +15°C° 0 mm 0 mps 680 mmHg 42%

    Day after tomorrow, 4 June, Thursday

    Time Temperature Precipitation Wind Pressure Humidity
    00:00 +14°C° 0 mm 0 mps 679 mmHg 43%
    01:00 +14°C° 0 mm 0 mps 679 mmHg 44%
    02:00 +14°C° 0 mm 0 mps 679 mmHg 45%
    03:00 +14°C° 0 mm 1 mps 679 mmHg 47%
    04:00 +14°C° 0 mm 1 mps 679 mmHg 48%
    05:00 +13°C° 0 mm 1 mps 679 mmHg 49%
    06:00 +13°C° 0 mm 1 mps 679 mmHg 48%
    07:00 +14°C° 0 mm 1 mps 680 mmHg 47%
    08:00 +13°C° 0 mm 0 mps 680 mmHg 46%
    09:00 +18°C° 0 mm 1 mps 681 mmHg 40%
    10:00 +20°C° 0 mm 2 mps 682 mmHg 34%
    11:00 +22°C° 0 mm 3 mps 682 mmHg 29%
    12:00 +24°C° 0 mm 3 mps 682 mmHg 26%
    13:00 +25°C° 0 mm 3 mps 681 mmHg 23%
    14:00 +27°C° 0 mm 3 mps 681 mmHg 20%
    15:00 +26°C° 0 mm 3 mps 681 mmHg 21%
    16:00 +25°C° 0 mm 2 mps 680 mmHg 22%
    17:00 +24°C° 0 mm 2 mps 680 mmHg 23%
    18:00 +21°C° 0 mm 2 mps 680 mmHg 27%
    19:00 +19°C° 0 mm 2 mps 680 mmHg 30%
    20:00 +18°C° 0 mm 1 mps 680 mmHg 33%
    21:00 +18°C° 0 mm 1 mps 680 mmHg 35%
    22:00 +16°C° 0 mm 1 mps 681 mmHg 37%
    23:00 +15°C° 0 mm 1 mps 681 mmHg 39%

    5 June, Friday

    Time Temperature Precipitation Wind Pressure Humidity
    00:00 +15°C° 0 mm 1 mps 681 mmHg 42%
    01:00 +14°C° 0 mm 1 mps 680 mmHg 46%
    02:00 +13°C° 0 mm 1 mps 680 mmHg 49%
    03:00 +12°C° 0 mm 1 mps 680 mmHg 54%
    04:00 +12°C° 0 mm 1 mps 680 mmHg 58%
    05:00 +11°C° 0 mm 1 mps 681 mmHg 63%
    06:00 +11°C° 0 mm 1 mps 681 mmHg 64%
    07:00 +12°C° 0 mm 1 mps 681 mmHg 66%
    08:00 +12°C° 0 mm 1 mps 682 mmHg 67%
    09:00 +14°C° 0 mm 1 mps 682 mmHg 60%
    10:00 +17°C° 0 mm 2 mps 683 mmHg 54%
    11:00 +19°C° 0 mm 2 mps 683 mmHg 48%
    12:00 +21°C° 0 mm 2 mps 683 mmHg 42%
    13:00 +23°C° 0 mm 2 mps 682 mmHg 36%
    14:00 +25°C° 0 mm 2 mps 682 mmHg 30%
    15:00 +24°C° 0 mm 2 mps 682 mmHg 30%
    16:00 +23°C° 0 mm 1 mps 682 mmHg 30%
    17:00 +23°C° 0 mm 1 mps 681 mmHg 30%
    18:00 +21°C° 0 mm 1 mps 681 mmHg 35%
    19:00 +19°C° 0 mm 1 mps 681 mmHg 39%
    20:00 +16°C° 0 mm 1 mps 681 mmHg 44%
    21:00 +16°C° 0 mm 1 mps 681 mmHg 46%
    22:00 +15°C° 0 mm 1 mps 681 mmHg 47%
    23:00 +15°C° 0 mm 1 mps 682 mmHg 49%

    6 June, Saturday

    Time Temperature Precipitation Wind Pressure Humidity
    00:00 +14°C° 0 mm 1 mps 681 mmHg 50%
    01:00 +14°C° 0 mm 1 mps 681 mmHg 51%
    02:00 +14°C° 0 mm 1 mps 681 mmHg 52%
    03:00 +13°C° 0 mm 1 mps 681 mmHg 54%
    04:00 +13°C° 0 mm 1 mps 681 mmHg 55%
    05:00 +12°C° 0 mm 1 mps 681 mmHg 57%
    06:00 +12°C° 0 mm 1 mps 682 mmHg 58%
    07:00 +12°C° 0 mm 1 mps 682 mmHg 58%
    08:00 +13°C° 0 mm 1 mps 683 mmHg 58%
    09:00 +15°C° 0 mm 1 mps 683 mmHg 51%
    10:00 +19°C° 0 mm 1 mps 684 mmHg 43%
    11:00 +22°C° 0 mm 1 mps 684 mmHg 36%
    12:00 +23°C° 0 mm 1 mps 684 mmHg 31%
    13:00 +24°C° 0 mm 1 mps 683 mmHg 27%
    14:00 +26°C° 0 mm 1 mps 683 mmHg 22%
    15:00 +25°C° 0 mm 1 mps 682 mmHg 23%
    16:00 +24°C° 0 mm 1 mps 682 mmHg 23%
    17:00 +23°C° 0 mm 1 mps 682 mmHg 24%
    18:00 +21°C° 0 mm 1 mps 682 mmHg 28%
    19:00 +20°C° 0 mm 1 mps 682 mmHg 32%
    20:00 +18°C° 0 mm 1 mps 682 mmHg 37%
    21:00 +16°C° 0 mm 1 mps 682 mmHg 39%
    22:00 +14°C° 0 mm 0 mps 682 mmHg 41%
    23:00 +14°C° 0 mm 0 mps 682 mmHg 43%

    7 June, Sunday

    Time Temperature Precipitation Wind Pressure Humidity
    00:00 +13°C° 0 mm 0 mps 682 mmHg 44%
    01:00 +13°C° 0 mm 0 mps 682 mmHg 45%
    02:00 +13°C° 0 mm 1 mps 682 mmHg 46%
    03:00 +12°C° 0 mm 1 mps 681 mmHg 50%
    04:00 +12°C° 0 mm 1 mps 681 mmHg 54%
    05:00 +11°C° 0 mm 1 mps 681 mmHg 57%
    06:00 +11°C° 0 mm 1 mps 682 mmHg 58%
    07:00 +12°C° 0 mm 1 mps 682 mmHg 58%
    08:00 +12°C° 0 mm 1 mps 683 mmHg 59%
    09:00 +15°C° 0 mm 1 mps 683 mmHg 53%
    10:00 +17°C° 0 mm 2 mps 683 mmHg 47%
    11:00 +20°C° 0 mm 2 mps 684 mmHg 40%
    12:00 +21°C° 0 mm 2 mps 683 mmHg 36%
    13:00 +23°C° 0 mm 2 mps 683 mmHg 31%
    14:00 +25°C° 0 mm 2 mps 682 mmHg 26%
    15:00 +24°C° 0 mm 2 mps 682 mmHg 26%
    16:00 +23°C° 0 mm 2 mps 682 mmHg 27%
    17:00 +23°C° 0 mm 1 mps 681 mmHg 27%
    18:00 +21°C° 0 mm 1 mps 681 mmHg 32%
    19:00 +19°C° 0 mm 1 mps 681 mmHg 37%
    20:00 +16°C° 0 mm 1 mps 681 mmHg 42%
    21:00 +15°C° 0 mm 1 mps 681 mmHg 44%
    22:00 +15°C° 0 mm 1 mps 681 mmHg 46%
    23:00 +13°C° 0 mm 0 mps 682 mmHg 48%
    Show more